TimeMST,TemperatureF,Dew PointF,Humidity,Sea Level PressureIn,VisibilityMPH,Wind Direction,Wind SpeedMPH,Gust SpeedMPH,PrecipitationIn,Events,Conditions,WindDirDegrees,DateUTC
12:57 AM,51.1,5.0,15,30.16,10.0,North,15.0,20.7,N/A,,Clear,360,2013-12-11 07:57:00
1:57 AM,50.0,5.0,16,30.15,10.0,North,13.8,-,N/A,,Clear,10,2013-12-11 08:57:00
2:57 AM,50.0,5.0,16,30.14,10.0,North,11.5,-,N/A,,Clear,10,2013-12-11 09:57:00
3:57 AM,48.9,6.1,18,30.15,10.0,North,15.0,-,N/A,,Clear,350,2013-12-11 10:57:00
4:57 AM,48.0,7.0,19,30.15,10.0,North,13.8,-,N/A,,Clear,360,2013-12-11 11:57:00
5:57 AM,48.0,7.0,19,30.17,10.0,North,12.7,-,N/A,,Scattered Clouds,360,2013-12-11 12:57:00
6:57 AM,48.0,7.0,19,30.19,10.0,North,11.5,-,N/A,,Mostly Cloudy,360,2013-12-11 13:57:00
7:57 AM,50.0,8.1,18,30.21,10.0,North,11.5,-,N/A,,Mostly Cloudy,360,2013-12-11 14:57:00
8:57 AM,51.1,9.0,18,30.22,10.0,North,11.5,-,N/A,,Mostly Cloudy,360,2013-12-11 15:57:00
9:57 AM,55.9,9.0,15,30.24,10.0,North,17.3,24.2,N/A,,Mostly Cloudy,10,2013-12-11 16:57:00
10:57 AM,57.9,9.0,14,30.23,10.0,North,16.1,-,N/A,,Scattered Clouds,360,2013-12-11 17:57:00
11:57 AM,60.1,10.0,14,30.21,10.0,North,13.8,-,N/A,,Scattered Clouds,360,2013-12-11 18:57:00
12:57 PM,62.1,10.0,13,30.19,10.0,NNE,13.8,-,N/A,,Scattered Clouds,20,2013-12-11 19:57:00
1:57 PM,63.0,12.0,14,30.17,10.0,North,13.8,-,N/A,,Scattered Clouds,360,2013-12-11 20:57:00
2:57 PM,64.0,10.9,13,30.17,10.0,North,11.5,-,N/A,,Scattered Clouds,10,2013-12-11 21:57:00
3:57 PM,63.0,12.0,14,30.16,10.0,North,13.8,-,N/A,,Scattered Clouds,360,2013-12-11 22:57:00
4:57 PM,62.1,12.9,15,30.15,10.0,North,11.5,-,N/A,,Partly Cloudy,360,2013-12-11 23:57:00
5:57 PM,59.0,12.9,16,30.16,10.0,North,11.5,-,N/A,,Partly Cloudy,350,2013-12-12 00:57:00
6:57 PM,57.9,12.9,17,30.16,10.0,North,9.2,-,N/A,,Partly Cloudy,360,2013-12-12 01:57:00
7:57 PM,57.0,12.9,18,30.17,10.0,North,8.1,-,N/A,,Partly Cloudy,10,2013-12-12 02:57:00
8:57 PM,55.9,12.9,18,30.18,10.0,North,6.9,-,N/A,,Clear,350,2013-12-12 03:57:00
9:57 PM,55.9,12.9,18,30.17,10.0,North,8.1,-,N/A,,Clear,360,2013-12-12 04:57:00
10:57 PM,55.9,12.9,18,30.17,10.0,North,10.4,-,N/A,,Clear,360,2013-12-12 05:57:00
11:57 PM,54.0,14.0,21,30.17,10.0,NNW,6.9,-,N/A,,Clear,340,2013-12-12 06:57:00